Погода в Фару

Португалия     37°01′09″N   7°55′39″W
темп.,
°C
ветер,
м/с
пор.,
м/с
влажн.,
%
обл.,
%
осадки,
мм/ч
давл.,
гПа
погр.,
м
14 июня, пн
пн1401:00+19сз33850 0.0 1019137
04:00+18ссв11820 0.0 101871
07:00+19вюв11820 0.0 1019132
10:00+20ююз22770 0.0 1019282
13:00+20юз548016 0.0 1019326
16:00+21зюз65770 0.0 1017356
19:00+21зюз56785 0.0 1016280
22:00+20з457872 0.0 101677
15 июня, вт
вт1501:00+20с237222 0.0 101626
04:00+20св1174100 0.0 101411
07:00+20в3374100 0.0 101435
10:00+21юв337343 0.0 1015212
13:00+21ю4371100 0.0 1015280
16:00+21юз44751 0.0 1014271
19:00+20зюз457981 0.0 1013270
22:00+19з45860 0.0 1014150
16 июня, ср
ср1601:00+18з33850 0.0 1014140
04:00+18зсз44860 0.0 1013185
07:00+17з44878 0.0 1013261
10:00+19зюз558073 0.0 1014520
13:00+19юз667656 0.0 1014605
16:00+20зюз777419 0.0 1013674
19:00+19зюз88770 0.0 1012575
22:00+19з89813 0.0 1013641
17 июня, чт
чт1701:00+18з458187 0.0 1014620
04:00+18зюз347896 0.1 1013464
07:00+19зсз3478100 0.2 1013374
10:00+20з2270100 0.1 1014504
13:00+20з3371100 0.1 1014568
16:00+21зюз4567100 0.0 1013605
19:00+23зсз4560100 0.0 1012507
22:00+18ссз9118090 0.0 1013360
18 июня, пт
пт1801:00+18сз5879100 0.3 1013378
04:00+17ссз3678100 0.3 1013370
07:00+17сз447796 0.4 1013410
10:00+19сз346422 0.0 1014759
13:00+19зюз886689 0.1 1014793
16:00+20зюз10960100 0.1 10131029
19:00+20зсз10951100 0.1 1013992
22:00+17сз7966100 0.0 1015770